Regional Weather Roundup
Issued by NWS Cleveland, OH

Home | Current Version | Previous Version | Graphics & Text | Print | Product List | Glossary On
Versions: 1 2 3 4 5 6 7 8 9 10 11 12 13 14 15 16 17 18 19 20 21 22 23 24 25 26 27 28 29 30 31 32 33 34 35 36 37 38 39 40 41 42 43 44 45 46 47 48 49 50
000
ASUS41 KCLE 231502
RWRCLE
OHIO REGIONAL WEATHER ROUNDUP
NATIONAL WEATHER SERVICE CLEVELAND, OH
1100 AM EDT THU MAR 23 2017

NOTE: "FAIR" INDICATES FEW OR NO CLOUDS BELOW 12,000 FEET WITH NO
SIGNIFICANT WEATHER AND/OR OBSTRUCTIONS TO VISIBILITY.

OHZ001>008-015>018-024>027-034-035-043-044-231600-
   NORTHWEST OHIO

CITY           SKY/WX    TMP DP  RH WIND       PRES   REMARKS
DEFIANCE       MOSUNNY   31  14  49 E13       30.51S WCI  21
FINDLAY        SUNNY     33  14  45 E10       30.50F WCI  25
TOLEDO EXPRESS SUNNY     33   8  35 E13       30.53F WCI  24
TOLEDO EXEC    SUNNY     34  13  41 E14       30.55F WCI  25
LIMA           PTSUNNY   34  17  50 SE10      30.48S WCI  26
$$

OHZ009>014-019>023-028>033-038-089-231600-
   NORTHEAST OHIO

CITY           SKY/WX    TMP DP  RH WIND       PRES   REMARKS
CLE-HOPKINS    PTSUNNY   33  12  41 E5        30.59F WCI  29
CLE-LAKEFRONT  SUNNY     33  14  45 SE8       30.58F WCI  26
CUY CO. ARPT   PTSUNNY   34  18  51 S10       30.58S WCI  26
LORAIN-ELYRIA  SUNNY     30  13  49 SE7       30.56F WCI  23
ASHTABULA      SUNNY     30  19  63 S5        30.59S WCI  25
AKRON-CANTON   MOSUNNY   32  15  49 SE7       30.54F WCI  26
WOOSTER        SUNNY     30  13  49 E9        30.54F WCI  22
MANSFIELD      SUNNY     32   9  38 E16       30.50F WCI  21
YOUNGSTOWN     MOSUNNY   30  17  58 VRB3      30.56F
$$

OHZ042-051>053-060>062-070>072-077>081-231600-
  SOUTHWEST OHIO

CITY           SKY/WX    TMP DP  RH WIND       PRES   REMARKS
CINC-COVINGTON PTSUNNY   39  15  37 E9        30.44R
CINC-LUNKEN    CLOUDY    41  17  38 VRB6      30.48F
HAMILTON       CLOUDY    38  17  42 E8        30.49R
DAYTON         PTSUNNY   34  16  47 SE14      30.47S WCI  25
WRIGHT-PAT AFB CLOUDY    36  15  41 E13       30.48R
DAYTON GENERAL PTSUNNY   35  17  47 E9        30.46R WCI  28
WILMINGTON     SUNNY     34  19  54 E10       30.47R WCI  26
$$

OHZ036-037-039>041-045>050-054>059-063>069-073>076-082>088-231600-
  CENTRAL AND SOUTHEAST OHIO

CITY           SKY/WX    TMP DP  RH WIND       PRES   REMARKS
COLUMBUS       PTSUNNY   36  11  35 E12       30.50F
OSU AIRPORT    SUNNY     35   9  33 E12       30.49F WCI  27
BOLTON FIELD   SUNNY     34  16  47 E10       30.50F WCI  26
RICKENBACK AFB SUNNY     33  15  48 E10       30.50F WCI  25
NEWARK         SUNNY     34  10  37 NE10      30.52S WCI  26
MARION         SUNNY     34  10  37 E12       30.50F WCI  25
LANCASTER      SUNNY     37  12  35 SE14      30.51S
ZANESVILLE     SUNNY     33  10  38 E12       30.53S WCI  24
NEW PHILLY     NOT AVBL
$$




USA.gov is the U.S. government's official web portal to all federal, state and local government web resources and services.